Regional Weather Roundup
Issued by NWS

Home | Current Version | Previous Version | Graphics & Text | Print | Product List | Glossary On
Versions: 1 2 3 4 5 6 7 8 9 10 11 12 13 14 15 16 17 18 19 20 21 22 23 24 25 26 27 28
000
ASUS45 KPSR 260810
RWRAZ

ARIZONA HOURLY REGIONAL WEATHER ROUNDUP
NATIONAL WEATHER SERVICE PHOENIX AZ
100 AM MST TUE SEP 26 2017

NOTE: FAIR INDICATES FEW OR NO CLOUDS BELOW 12,000 FEET WITH NO
SIGNIFICANT WEATHER AND/OR OBSTRUCTIONS TO VISIBILITY.

AZZ001>003-036-260900-
NORTHWEST ARIZONA

CITY           SKY/WX    TMP DP  RH WIND       PRES   REMARKS
BULLHEAD CITY  PTCLDY    75  27  16 N21       29.78S
KINGMAN        CLEAR     56  25  30 E6        29.93S
$$

AZZ004>008-015-016-018-260900-
NORTH CENTRAL ARIZONA

CITY           SKY/WX    TMP DP  RH WIND       PRES   REMARKS
GRAND CANYON   CLEAR     48  20  32 E8        30.08S
WILLIAMS       CLEAR     43  10  26 SE9       30.06S
PRESCOTT       CLEAR     46  25  43 S6        29.98R
FLAGSTAFF      CLEAR     34  13  41 CALM      30.08S
PAYSON           N/A     55   9  15 NE6       29.98F
PAGE           CLEAR     54  26  34 SW5       30.01R
$$

AZZ009>014-017-260900-
NORTHEAST ARIZONA

CITY           SKY/WX    TMP DP  RH WIND       PRES   REMARKS
WINSLOW        CLEAR     40   9  28 SW3       30.01S
SAINT JOHNS    CLEAR     46  15  28 NE3       30.02R
WINDOW ROCK    CLEAR     35  17  47 CALM      30.09S
SHOW LOW       CLEAR     39  25  56 S5        30.05S
$$

AZZ540-542>544-546-548-260900-
GREATER PHOENIX AREA

CITY           SKY/WX    TMP DP  RH WIND       PRES   REMARKS
PHOENIX        CLEAR     72  24  16 CALM      29.75S
BUCKEYE        CLEAR     66  19  16 N7        29.76F
LUKE AFB       CLEAR     64  32  30 CALM      29.74F
DEER VALLEY    CLEAR     62  21  20 CALM      29.77S
SCOTTSDALE     CLEAR     69  25  19 N3        29.79S
MESA-GATEWAY   CLEAR     59  19  21 SE7       29.78F
$$

AZZ539-553-260900-
SOUTHWEST MARICOPA COUNTY AND PINAL COUNTY

CITY           SKY/WX    TMP DP  RH WIND       PRES   REMARKS
CASA GRANDE    NOT AVBL
GILA BEND      FAIR      63  11  13 S8        29.75S
$$

AZZ503-504-507>509-260900-
SOUTHEAST ARIZONA

CITY           SKY/WX    TMP DP  RH WIND       PRES   REMARKS
TUCSON         CLEAR     61  19  19 S5        29.87R
DAVIS-MONTHAN  CLEAR     59  18  20 S7        29.85S
NOGALES        CLEAR     52  25  35 NE5       29.92S
SIERRA VISTA   CLEAR     60  19  20 SW8       29.96S
DOUGLAS        CLEAR     55  24  30 CALM      29.93R
SAFFORD        CLEAR     57  13  17 CALM      29.84R
$$

AZZ532-260900-
SOUTHWEST ARIZONA

CITY           SKY/WX    TMP DP  RH WIND       PRES   REMARKS
YUMA           PTCLDY    70  27  20 CALM      29.74F
$$

CAZ041-043-047-048-061-525>527-560>570-260900-
SOUTHERN CALIFORNIA

CITY           SKY/WX    TMP DP  RH WIND       PRES   REMARKS
DOWNTOWN L.A.  CLEAR     69  38  32 CALM      29.78F
L.A. AIRPORT   PTCLDY    67  57  70 E3        29.79F
SAN DIEGO      PTCLDY    67  48  50 CALM      29.81F
BURBANK        CLEAR     65  34  31 CALM      29.81F
ONTARIO        PTCLDY    64  29  26 CALM      29.82F
RIVERSIDE      CLEAR     64  34  32 NE7       29.82F
PALM SPRINGS   CLEAR     73  29  19 N8        29.81S
EL CENTRO NAS  CLEAR     66  19  16 W8        29.77S
IMPERIAL       CLEAR     64  32  30 W7        29.75S
BLYTHE         CLEAR     68  21  16 NW5       29.76
NEEDLES        PTCLDY    73  23  15 N9        29.79F
$$

NVZ020-UTZ003-260900-
SOUTHERN NEVADA-UTAH

CITY           SKY/WX    TMP DP  RH WIND       PRES   REMARKS
LAS VEGAS      PTCLDY    67  30  25 SW3       29.91R
SALT LAKE CITY CLEAR     46  39  76 SE5       30.12S
$$

NMZ009-TXZ055-260900-
NEW MEXICO-WEST TEXAS

CITY           SKY/WX    TMP DP  RH WIND       PRES   REMARKS
ALBUQUERQUE    PTCLDY    60  50  69 E21G29    30.01R
EL PASO        PTCLDY    68  34  28 CALM      29.88S
$$


........................KEY........................
SKY/WX - SKY CONDITION/WEATHER
TMP    - TEMPERATURE IN FAHRENHEIT
DP     - DEW POINT IN FAHRENHEIT
RH     - RELATIVE HUMIDITY IN PERCENT
WIND   - DIRECTION AND SPEED IN MILES PER HOUR (MPH)
VRB    - VARIABLE WIND DIRECTION
PRES   - MEAN SEA LEVEL PRESSURE IN INCHES OF MERCURY
         F - FALLING PRESSURE   R - RISING PRESSURE
         S - STEADY PRESSURE
VSB    - VISIBILITY IN MILES
HX     - HEAT INDEX IN FAHRENHEIT
WCI    - WIND CHILL INDEX IN FAHRENHEIT
TC     - TEMPERATURE IN CELSIUS WHICH IS ALSO KNOWN AS
         TEMPERATURE IN CENTIGRADE
AFB    - AIR FORCE BASE
         LUKE AFB IS LUKE AIR FORCE BASE
         DAVIS-MONTHAN IS DAVIS-MONTHAN AIR FORCE BASE
NAS    - NAVAL AIR STATION
         EL CENTRO NAS IS EL CENTRO NAVAL AIR STATION
N/A    - NOT AVAILABLE





USA.gov is the U.S. government's official web portal to all federal, state and local government web resources and services.